Regional Weather Roundup
Issued by NWS

Home | Current Version | Previous Version | Graphics & Text | Print | Product List | Glossary On
Versions: 1 2 3 4 5 6 7 8 9 10 11 12 13 14 15 16 17 18 19 20 21 22 23 24 25 26 27 28 29 30 31 32 33 34 35 36 37 38 39 40 41 42 43 44 45 46 47 48 49 50
000
ASUS45 KPSR 281000
RWRAZ

ARIZONA REGIONAL HOURLY WEATHER ROUNDUP
NATIONAL WEATHER SERVICE PHOENIX AZ
300 AM MST SAT MAR 28 2015

NOTE: FAIR INDICATES FEW OR NO CLOUDS BELOW 12,000 FEET WITH NO
SIGNIFICANT WEATHER AND/OR OBSTRUCTIONS TO VISIBILITY.

AZZ001>003-036-281100-
NORTHWEST ARIZONA

CITY           SKY/WX    TMP DP  RH WIND       PRES   REMARKS
KINGMAN        CLEAR     48  26  42 CALM      30.14S
$$

AZZ004>008-015-016-018-281100-
NORTH CENTRAL ARIZONA

CITY           SKY/WX    TMP DP  RH WIND       PRES   REMARKS
GRAND CANYON   PTCLDY    27  19  72 CALM      30.30F
WILLIAMS       CLEAR     36  21  55 S8        30.36F WCI  29
PRESCOTT       PTCLDY    43  22  43 S9        30.23F
FLAGSTAFF      NOT AVBL
PAYSON         PTCLDY    52  21  30 NW5       30.24S
PAGE           CLEAR     57  22  25 CALM      30.15F
$$

AZZ009>014-017-281100-
NORTHEAST ARIZONA

CITY           SKY/WX    TMP DP  RH WIND       PRES   REMARKS
WINSLOW        NOT AVBL
SAINT JOHNS    PTCLDY    43  18  36 S6        30.25S
WINDOW ROCK    CLEAR     30  17  58 CALM      30.29F
SHOW LOW       CLEAR     39  16  38 S9        30.31S WCI  33
$$

AZZ023-281100-
GREATER PHOENIX AREA

CITY           SKY/WX    TMP DP  RH WIND       PRES   REMARKS
PHOENIX        CLEAR     68  30  24 E5        30.01R
DEER VALLEY    CLEAR     67  25  20 N9        30.02F
SCOTTSDALE     CLEAR     63  34  33 CALM      30.04S
$$

AZZ027-028-281100-
SOUTHWEST MARICOPA COUNTY AND PINAL COUNTY

CITY           SKY/WX    TMP DP  RH WIND       PRES   REMARKS
CASA GRANDE    CLEAR     57  23  26 CALM      30.02S
$$

AZZ503-504-507>509-281100-
SOUTHEAST ARIZONA

CITY           SKY/WX    TMP DP  RH WIND       PRES   REMARKS
TUCSON         CLEAR     59  24  26 S6        30.12S
NOGALES        CLEAR     48  24  39 S7        30.17F
SAFFORD        CLEAR     51  22  31 SE6       30.11S
$$

AZZ020-021-025-026-031-281100-
SOUTHWEST ARIZONA

CITY           SKY/WX    TMP DP  RH WIND       PRES   REMARKS
YUMA           CLEAR     68  36  30 CALM      29.96F
$$

CAZ031-033-041-043-047-048-061-281100-
SOUTHERN CALIFORNIA

CITY           SKY/WX    TMP DP  RH WIND       PRES   REMARKS
DOWNTOWN L.A.  CLEAR     62  56  80 CALM      30.04F
L.A. AIRPORT   CLEAR     59  56  89 CALM      30.05S
SAN DIEGO      CLOUDY    62  58  86 CALM      30.07F FOG
BURBANK        CLEAR     65  45  48 NE3       30.05
ONTARIO        CLEAR     64  43  46 CALM      30.06F
RIVERSIDE      CLEAR     62  43  49 CALM      30.06F
PALM SPRINGS   CLEAR     73  38  27 CALM      29.99F
EL CENTRO NAS  CLEAR     65  31  28 W8        29.95F
IMPERIAL       CLEAR     71  35  26 NW7       29.94F
BLYTHE         CLEAR     64  32  30 CALM      29.97F
$$

NVZ020-UTZ003-281100-
SOUTHERN NEVADA-UTAH

CITY           SKY/WX    TMP DP  RH WIND       PRES   REMARKS
LAS VEGAS      NOT AVBL
SALT LAKE CITY CLEAR     53  32  44 S9        30.09F
$$

NMZ009-TXZ055-281100-
NEW MEXICO-WEST TEXAS

CITY           SKY/WX    TMP DP  RH WIND       PRES   REMARKS
ALBUQUERQUE    CLEAR     46  19  34 E7        30.19S
EL PASO        CLEAR     52  24  33 E9        30.12S
$$


........................KEY........................
SKY/WX - SKY CONDITION/WEATHER
TMP    - TEMPERATURE IN FAHRENHEIT
DP     - DEW POINT IN FAHRENHEIT
RH     - RELATIVE HUMIDITY IN PERCENT
WIND   - DIRECTION AND SPEED IN MILES PER HOUR (MPH)
VRB    - VARIABLE WIND DIRECTION
PRES   - MEAN SEA LEVEL PRESSURE IN INCHES OF MERCURY
         F - FALLING PRESSURE   R - RISING PRESSURE
         S - STEADY PRESSURE
VSB    - VISIBILITY IN MILES
HX     - HEAT INDEX IN FAHRENHEIT
WCI    - WIND CHILL INDEX IN FAHRENHEIT
TC     - TEMPERATURE IN CELSIUS WHICH IS ALSO KNOWN AS
         TEMPERATURE IN CENTIGRADE
AFB    - AIR FORCE BASE
         LUKE AFB IS LUKE AIR FORCE BASE
         DAVIS-MONTHAN IS DAVIS-MONTHAN AIR FORCE BASE
NAS    - NAVAL AIR STATION
         EL CENTRO NAS IS EL CENTRO NAVAL AIR STATION
N/A    - NOT AVAILABLE




USA.gov is the U.S. government's official web portal to all federal, state and local government web resources and services.